Flag for Poland Weather past 2 weeks in Gdynia, Poland

Now
70 °F

Passing clouds.


Feels Like: 70 °F
Forecast: 58 / 67 °F
Wind: 9 mph from Northwest

Location: Gdansk-Rebiechowo

Current Time: Aug 30, 2014 at 5:02:37 PM

Latest Report: Aug 30, 2014 at 4:30 PM


Visibility: N/A

Pressure: 29.95 "Hg

Humidity: 46%

Dew point: 48 °F

Location of GdyniaLocation

Historic Weather in Gdynia — Graph

°F

Gdynia temperature yesterday

Maximum temperature yesterday: 70 °F (at 1:00 PM)
Minimum temperature yesterday: 50 °F (at 5:30 AM)
Average temperature yesterday: 59 °F

Past Weeks' High & Low Weather Summary

 TemperatureHumidityPressure
High70 °F (Aug 29, 1:00 PM)100% (Aug 16, 3:00 AM)30.01 "Hg (Aug 16, 3:00 AM)
Low43 °F (Aug 24, 6:30 AM)31% (Aug 29, 2:00 PM)29.56 "Hg (Aug 18, 5:00 PM)
Average58 °F73%29.83 "Hg
* Reported Aug 15 4:00 PM — Aug 30 4:00 PM, Gdynia, Weather by CustomWeather, © 2014

Note: Actual official high and low records may vary slightly from our data, if they occured in-between our weather recording intervals... More about our weather records

Advertising

Gdynia weather history for previous 24 hours

 ConditionsComfort  
Time TempWeatherWind HumidityBarometerVisibility
4:00 PM
Aug 30
70 °FPassing clouds.10 mph46%29.95 "HgN/A
3:30 PM70 °FPassing clouds.7 mph57%29.95 "HgN/A
3:00 PM70 °FScattered clouds.12 mph50%29.95 "HgN/A
2:30 PM68 °FScattered clouds.12 mph60%29.95 "HgN/A
2:00 PM68 °FScattered clouds.12 mph60%29.95 "HgN/A
1:30 PM70 °FScattered clouds.8 mph57%29.95 "HgN/A
1:00 PM68 °FScattered clouds.9 mph60%29.95 "HgN/A
12:30 PM66 °FScattered clouds.7 mph68%29.95 "HgN/A
12:00 PM64 °FScattered clouds.8 mph78%29.95 "HgN/A
11:30 AM64 °FScattered clouds.14 mph73%29.95 "HgN/A
11:00 AM64 °FPartly sunny.12 mph78%29.95 "HgN/A
10:30 AM63 °FPartly sunny.10 mph88%29.95 "HgN/A
10:00 AM63 °FPartly sunny.8 mph83%29.95 "HgN/A
9:30 AM61 °FPartly sunny.8 mph88%29.95 "HgN/A
9:00 AM61 °FScattered clouds.5 mph88%29.92 "HgN/A
8:30 AM57 °FPassing clouds.5 mph94%29.92 "HgN/A
8:00 AM55 °FPassing clouds.3 mph100%29.92 "HgN/A
7:30 AM55 °FPassing clouds.3 mph94%29.92 "HgN/A
7:00 AM54 °FSunny.3 mph100%29.92 "Hg10 mi
6:30 AM54 °FClear.2 mph94%29.92 "Hg10 mi
6:00 AM52 °FClear.1 mph100%29.92 "Hg10 mi
5:30 AM52 °FClear.No wind94%29.92 "Hg10 mi
5:00 AM52 °FClear.1 mph94%29.92 "Hg5 mi
4:30 AM50 °FClear.2 mph100%29.92 "Hg5 mi
4:00 AM52 °FFog.2 mph94%29.92 "HgN/A
3:30 AM52 °FFog.No wind94%29.92 "HgN/A
3:00 AM52 °FFog.1 mph94%29.92 "HgN/A
2:30 AM52 °FFog.No wind94%29.95 "HgN/A
2:00 AM54 °FFog.2 mph94%29.95 "HgN/A
1:30 AM55 °FFog.2 mph88%29.95 "HgN/A
1:00 AM54 °FCool.3 mph94%29.95 "HgN/A
12:30 AM55 °FCool.2 mph94%29.95 "HgN/A
12:00 AM55 °FFog.2 mph100%29.95 "HgN/A
11:30 PM
Aug 29
55 °FFog.5 mph100%29.95 "HgN/A
11:00 PM55 °FFog.3 mph100%29.95 "HgN/A
9:00 PM59 °FPassing clouds.3 mph88%29.98 "HgN/A
8:30 PM59 °FPassing clouds.2 mph94%29.98 "HgN/A
8:00 PM59 °FSunny.6 mph88%29.98 "Hg10 mi
7:30 PM61 °FPassing clouds.6 mph83%29.95 "HgN/A
7:00 PM61 °FPassing clouds.5 mph83%29.98 "HgN/A
6:30 PM63 °FPassing clouds.6 mph77%29.98 "HgN/A
6:00 PM63 °FPassing clouds.8 mph73%29.98 "HgN/A
5:30 PM63 °FSunny.10 mph73%29.98 "Hg10 mi
5:00 PM64 °FPassing clouds.10 mph68%29.98 "HgN/A
Weather by CustomWeather, © 2014

See weather overviewHow to use our weather pages